Address 0x2ce1d0ffd7e869d9df33e28552b12ddded326706 1

Overview

Balance:
0.0288301764 BNB

Token:
My Name Tag:
Not Available

Txn Hash Method
Block
From
To
Value [Txn Fee]
0x896f3bcca62dfaac3c25550299035808d79d51d0d6bf160c6201ae6a8e64e111Transfer124090082021-09-16 6:24:484 days 14 hrs ago0x2ce1d0ffd7e869d9df33e28552b12ddded326706OUT 0xb9e0e753630434d7863528cc73cb7ac638a7c8ff0 BNB0.001582185
0x835ce0357365554240e5e19e88aa6d94d222c8323179e4995f9896015301e022Transfer124089292021-09-16 6:20:514 days 14 hrs ago0x2ce1d0ffd7e869d9df33e28552b12ddded326706OUT 0xb9e0e753630434d7863528cc73cb7ac638a7c8ff0 BNB0.00132462
0x61aede1b49c0ff556c7823113d778c4902ff975ed2213b4f58b2ef8999c8324fTransfer124085392021-09-16 6:01:214 days 14 hrs ago0x2ce1d0ffd7e869d9df33e28552b12ddded326706OUT 0xa11c8d9dc9b66e209ef60f0c8d969d3cd988782c0 BNB0.00076533
0x5f259a2bd866f35ddddb6afa1f6bde0ef88a201aab4526a37fabe8adabee3ce2Transfer124082082021-09-16 5:44:484 days 15 hrs ago0x2ce1d0ffd7e869d9df33e28552b12ddded326706OUT 0xa11c8d9dc9b66e209ef60f0c8d969d3cd988782c0 BNB0.00076551
0x8e11985dd90dafc9e8e701ccf7839be5f74048d8bf7a506d11a3595932b689e2Transfer124072892021-09-16 4:58:514 days 15 hrs ago0x2ce1d0ffd7e869d9df33e28552b12ddded326706OUT 0x98f7a83361f7ac8765ccebab1425da6b341958a70 BNB0.00035238
0xf33900249fa9c42310a80ae603084e63aa8d030ea1d6f5216bd330e945ce2cfeTransfer124071362021-09-16 4:51:124 days 15 hrs ago0x2ce1d0ffd7e869d9df33e28552b12ddded326706OUT 0x98f7a83361f7ac8765ccebab1425da6b341958a70 BNB0.00035256
0x57cb2f1973ceadd827df60271c8580d8eada9e7f93c4427469cadfefe157cb95Transfer124066852021-09-16 4:28:394 days 16 hrs ago0x2ce1d0ffd7e869d9df33e28552b12ddded326706OUT 0xa11c8d9dc9b66e209ef60f0c8d969d3cd988782c0 BNB0.00076551
0xbf7a69cae0ef0d4c373a9d46b460dedf3581e78048aa1a0cb7325c8bbc72015cTransfer124059112021-09-16 3:49:574 days 16 hrs ago0x2ce1d0ffd7e869d9df33e28552b12ddded326706OUT 0x8301f2213c0eed49a7e28ae4c3e91722919b8b470 BNB0.00076623
0x1a9ccba2403941ed51e32003a077443ac18f645900c7aa53b06d720e4568ee0bTransfer124058992021-09-16 3:49:214 days 16 hrs ago0x2ce1d0ffd7e869d9df33e28552b12ddded326706OUT 0xa11c8d9dc9b66e209ef60f0c8d969d3cd988782c0 BNB0.00076551
0x827217337341dd399e9d5d01c3fb4b34db82dc7579a5a7a6702c15d803330b6fTransfer124052982021-09-16 3:19:184 days 17 hrs ago0x2ce1d0ffd7e869d9df33e28552b12ddded326706OUT 0x75107940cf1121232c0559c747a986defbc69da90 BNB0.00076605
0x764ef7e2e7028e34568315eb659e99c0eff091c18b86f5d26143276fc4985c29Transfer124052522021-09-16 3:17:004 days 17 hrs ago0x2ce1d0ffd7e869d9df33e28552b12ddded326706OUT 0xa11c8d9dc9b66e209ef60f0c8d969d3cd988782c0 BNB0.00054051
0x4abefa22cbbc2f30c9d0aa39e0ea3482e745fe0e554bb3296adf238ba0ef6709Transfer124041452021-09-16 2:21:394 days 18 hrs ago0x2ce1d0ffd7e869d9df33e28552b12ddded326706OUT 0x8301f2213c0eed49a7e28ae4c3e91722919b8b470 BNB0.00076623
0x34661b2b8db92e556b2b92d70e27f74c26485feaa465a65fd0578b9bfe4de504Transfer124022302021-09-16 0:45:544 days 20 hrs ago0x2ce1d0ffd7e869d9df33e28552b12ddded326706OUT 0x8301f2213c0eed49a7e28ae4c3e91722919b8b470 BNB0.00076623
0xb0309809bf390b7ca93a72bdc46a8bdd74cf381d61df9f48e5f4cee2147b6d07Transfer124018862021-09-16 0:28:424 days 20 hrs ago0x2ce1d0ffd7e869d9df33e28552b12ddded326706OUT 0xa11c8d9dc9b66e209ef60f0c8d969d3cd988782c0 BNB0.00054051
0x506301860e91d0c034744dcd90417f7446006b46daab8e125e2aa4f53a3d58d1Transfer124018702021-09-16 0:27:544 days 20 hrs ago0x2ce1d0ffd7e869d9df33e28552b12ddded326706OUT 0x98f7a83361f7ac8765ccebab1425da6b341958a70 BNB0.00035256
0x66099000d8db2415bab6fe27d0083f47c0d2fb62997f079637291b63dff13c9dTransfer124012692021-09-15 23:57:464 days 20 hrs ago0x2ce1d0ffd7e869d9df33e28552b12ddded326706OUT 0xa11c8d9dc9b66e209ef60f0c8d969d3cd988782c0 BNB0.00076551
0xf7cf022857fa3ee7fc400ea3d99a60c7f4a7276f587db6fd8a89d387c73024c6Transfer124007142021-09-15 23:30:014 days 21 hrs ago0x2ce1d0ffd7e869d9df33e28552b12ddded326706OUT 0xa11c8d9dc9b66e209ef60f0c8d969d3cd988782c0 BNB0.00076551
0x63679206d3ad1d86d52bf0f3e9b30f9154758e6e2187b7375afe99f0f3be3f53Transfer123993072021-09-15 22:19:404 days 22 hrs ago0x2ce1d0ffd7e869d9df33e28552b12ddded326706OUT 0xa11c8d9dc9b66e209ef60f0c8d969d3cd988782c0 BNB0.00076551
0x8835a9d548932d1ae2a18793c0419c4349ef6e95ff8690bf656db6b54cbfe0a5Transfer123983172021-09-15 21:30:104 days 23 hrs ago0x2ce1d0ffd7e869d9df33e28552b12ddded326706OUT 0x98f7a83361f7ac8765ccebab1425da6b341958a70 BNB0.00035256
0xf32eb2f9060f49062c3bec514fdce50f8b117937b17c16b4e7c5aea60f7caed9Transfer123974572021-09-15 20:47:105 days 1 min ago0x2ce1d0ffd7e869d9df33e28552b12ddded326706OUT 0x8301f2213c0eed49a7e28ae4c3e91722919b8b470 BNB0.00076623
0x1b2d75782bea17da43c527d7324992879c7ccfff0d18b4c06523d0ba03b2a931Transfer123966412021-09-15 20:06:225 days 42 mins ago0x2ce1d0ffd7e869d9df33e28552b12ddded326706OUT 0x98f7a83361f7ac8765ccebab1425da6b341958a70 BNB0.00035238
0xcc6f435c03e2c9b8a20e3798451415bcbf6d1fc1aaf9b5c86c072e2e024e5083Transfer123960702021-09-15 19:37:495 days 1 hr ago0x2ce1d0ffd7e869d9df33e28552b12ddded326706OUT 0x98f7a83361f7ac8765ccebab1425da6b341958a70 BNB0.00035256
0x4f521f2cdaddb7b565a1373132948cf711c3033f47372b49e534f60014c8336eTransfer123958942021-09-15 19:29:015 days 1 hr ago0x2ce1d0ffd7e869d9df33e28552b12ddded326706OUT 0x98f7a83361f7ac8765ccebab1425da6b341958a70 BNB0.00035256
0xcd8648c837dc9f78753d9cda0ccba3db029c95e43a574f4a00320ab9d7f744b1Transfer123937222021-09-15 17:40:255 days 3 hrs ago0x2ce1d0ffd7e869d9df33e28552b12ddded326706OUT 0xb9e0e753630434d7863528cc73cb7ac638a7c8ff0 BNB0.001582185
0xf72d2351513e5466cfe9fddc892590b82c69e9fe1a660e3459e82eeb3a733944Transfer123934152021-09-15 17:25:045 days 3 hrs ago0x2ce1d0ffd7e869d9df33e28552b12ddded326706OUT 0xb9e0e753630434d7863528cc73cb7ac638a7c8ff0 BNB0.001582185
[ Download CSV Export 
Latest 6 internal transactions
Parent Txn Hash Block From To Value
0x04ef209dd7e5e08d345044b062be27e48f7347ecf7878a4ad250eced55d63577100278852021-06-25 0:29:5587 days 20 hrs ago 0xdb73dde1867843fdca5244258f2fd4b6dc7b154e0x2ce1d0ffd7e869d9df33e28552b12ddded3267060.000001 BNB
0x9d0cb5ed91dddb3802c47b1437ab347bdb0d9743d604f7c9a82738e571ef877b79938792021-04-15 7:30:09158 days 13 hrs ago 0x2e7222e51c0f6e98610a1543aa3836e092cde62c0x2ce1d0ffd7e869d9df33e28552b12ddded326706111 BNB
0x3a8713589e9b21e85d7ff39e221fb0ef81c17d98cd8e8442fc358ee55c9a7e0358814222021-01-31 16:55:56232 days 3 hrs ago 0x2e7222e51c0f6e98610a1543aa3836e092cde62c0x2ce1d0ffd7e869d9df33e28552b12ddded3267065,000 BNB
0xb48d1265a43b91646c063dceea46db0ee618c4d7344b205c159355756c42127258813822021-01-31 16:53:56232 days 3 hrs ago 0x2e7222e51c0f6e98610a1543aa3836e092cde62c0x2ce1d0ffd7e869d9df33e28552b12ddded32670610,000 BNB
0x95b5e7e5a8f6ab728846370bdd7a1163bf64a408ab6687ed327b9f5845622d0c58808582021-01-31 16:27:44232 days 4 hrs ago 0x2e7222e51c0f6e98610a1543aa3836e092cde62c0x2ce1d0ffd7e869d9df33e28552b12ddded3267061,111 BNB
0x798c49bce2bbd5bc2b35f2f75b6d7978c7611afe35b3d39f421405815d5e555833885232020-11-05 9:21:46319 days 11 hrs ago 0x2e7222e51c0f6e98610a1543aa3836e092cde62c0x2ce1d0ffd7e869d9df33e28552b12ddded326706282.92675971 BNB
[ Download CSV Export 
Loading

Contract Name:
0 BNB

Compiler Version
0

Optimization Enabled:
0 BNB

Other Settings:
-NA-
Block Transaction Gas Used Reward
Age Block Fee Address BC Fee Address Voting Power Jailed Incoming
Block Uncle Number Difficulty Gas Used Reward
Loading